Flag for U.S.A. Weather past 2 weeks in Everett, Washington, U.S.A.

Now
44 °F

Sunny.


Feels Like: 43 °F
Forecast: 31 / 50 °F
Wind: 3 mph from North

Location: Snohomish County Airport

Current Time: Mar 3, 2015 at 11:53:57 AM

Latest Report: Mar 3, 2015 at 10:53 AM


Visibility: 10 mi

Pressure: 30.26 "Hg

Humidity: 53%

Dew point: 28 °F

Location of EverettLocation

Historic Weather in Everett — Graph

°F

Everett temperature yesterday

Maximum temperature yesterday: 49 °F (at 1:53 PM)
Minimum temperature yesterday: 40 °F (at 5:53 AM)
Average temperature yesterday: 44 °F

Past Weeks' High & Low Weather Summary

 TemperatureHumidityPressure
High56 °F (Feb 17, 1:53 PM)96% (Feb 20, 3:53 AM)30.48 "Hg (Feb 20, 3:53 AM)
Low33 °F (Mar 3, 6:53 AM)32% (Feb 28, 2:53 PM)29.74 "Hg (Feb 27, 5:53 AM)
Average45 °F72%30.22 "Hg
* Reported Feb 16 10:53 AM — Mar 3 10:53 AM, Everett, Weather by CustomWeather, © 2015

Note: Actual official high and low records may vary slightly from our data, if they occured in-between our weather recording intervals... More about our weather records

Advertising

Everett weather history for previous 24 hours

 ConditionsComfort  
Time TempWeatherWind HumidityBarometerVisibility
10:53 AM
Tue, Mar 3
44 °FSunny.3 mph53%30.26 "Hg10 mi
9:53 AM42 °FSunny.5 mph62%30.26 "Hg10 mi
8:53 AM41 °FSunny.3 mph62%30.25 "Hg10 mi
7:53 AM38 °FSunny.No wind73%30.23 "Hg10 mi
6:53 AM33 °FSunny.3 mph82%30.23 "Hg10 mi
5:53 AM34 °FClear.No wind79%30.22 "Hg10 mi
4:53 AM35 °FClear.3 mph78%30.22 "Hg10 mi
3:53 AM36 °FClear.3 mph70%30.21 "Hg10 mi
2:53 AM36 °FClear.3 mph62%30.19 "Hg10 mi
1:53 AM37 °FClear.5 mph65%30.18 "Hg10 mi
12:53 AM39 °FClear.5 mph60%30.16 "Hg10 mi
11:53 PM
Mon, Mar 2
40 °FClear.3 mph60%30.15 "Hg10 mi
10:53 PM42 °FClear.7 mph62%30.13 "Hg10 mi
9:53 PM43 °FClear.8 mph65%30.12 "Hg10 mi
8:53 PM44 °FClear.8 mph60%30.10 "Hg10 mi
7:53 PM44 °FClear.3 mph58%30.08 "Hg10 mi
6:53 PM44 °FClear.6 mph60%30.07 "Hg10 mi
5:53 PM46 °FSunny.12 mph58%30.05 "Hg10 mi
4:53 PM48 °FSunny.9 mph54%30.05 "Hg10 mi
3:53 PM49 °FScattered clouds.9 mph57%30.04 "Hg10 mi
2:53 PM49 °FPassing clouds.14 mph59%30.03 "Hg10 mi
1:53 PM49 °FScattered clouds.14 mph64%30.03 "Hg10 mi
12:53 PM47 °FScattered clouds.10 mph69%30.03 "Hg10 mi
11:53 AM48 °FScattered clouds.10 mph61%30.03 "Hg10 mi
11:00 AM46 °FPartly sunny.12 mph68%30.03 "Hg10 mi
Weather by CustomWeather, © 2015

See weather overviewHow to use our weather pages